| time (UTC) | temp C | wind direction | speed KPH | gust KPH | rain 1hr cm | rain 24hr cm | rain mn cm | humidity % | barometer mb |
| 20260505211755 | 28 | 205 | 8.0 | 16.1 | 0.00 | 0.00 | 0.00 | 82 | 1005.0 |
| 20260505211253 | 28 | 217 | 12.9 | 17.7 | 0.00 | 0.00 | 0.00 | 82 | 1005.3 |
| 20260505210749 | 28 | 144 | 8.0 | 14.5 | 0.00 | 0.00 | 0.00 | 81 | 1005.5 |
| 20260505210246 | 28 | 204 | 9.7 | 16.1 | 0.00 | 0.00 | 0.00 | 81 | 1005.9 |
| 20260505205743 | 28 | 225 | 9.7 | 17.7 | 0.00 | 0.00 | 0.00 | 81 | 1005.8 |
| 20260505205242 | 29 | 148 | 3.2 | 8.0 | 0.00 | 0.00 | 0.00 | 81 | 1005.9 |
| 20260505204738 | 29 | 180 | 0.0 | 17.7 | 0.00 | 0.00 | 0.00 | 80 | 1006.0 |
| 20260505204236 | 28 | 227 | 4.8 | 17.7 | 0.00 | 0.00 | 0.00 | 80 | 1005.9 |
| 20260505203733 | 28 | 200 | 8.0 | 14.5 | 0.00 | 0.00 | 0.00 | 80 | 1006.1 |
| 20260505203230 | 28 | 222 | 14.5 | 19.3 | 0.00 | 0.00 | 0.00 | 81 | 1006.2 |
| 20260505202725 | 28 | 210 | 12.9 | 17.7 | 0.00 | 0.00 | 0.00 | 81 | 1006.1 |
| 20260505202222 | 29 | 218 | 8.0 | 11.3 | 0.00 | 0.00 | 0.00 | 82 | 1006.2 |
| 20260505201718 | 28 | 210 | 16.1 | 17.7 | 0.00 | 0.00 | 0.00 | 81 | 1006.4 |
| 20260505201216 | 28 | 157 | 8.0 | 14.5 | 0.00 | 0.00 | 0.00 | 82 | 1006.2 |
| 20260505200714 | 28 | 233 | 3.2 | 9.7 | 0.00 | 0.00 | 0.00 | 81 | 1006.4 |
| 20260505200211 | 28 | 225 | 8.0 | 25.7 | 0.00 | 0.00 | 0.00 | 81 | 1006.5 |
| 20260505195706 | 28 | 231 | 8.0 | 16.1 | 0.00 | 0.00 | 0.00 | 82 | 1006.6 |
| 20260505195204 | 28 | 226 | 17.7 | 24.1 | 0.00 | 0.00 | 0.00 | 82 | 1006.7 |
| 20260505194701 | 28 | 233 | 9.7 | 17.7 | 0.00 | 0.00 | 0.00 | 82 | 1006.6 |
| 20260505194157 | 28 | 207 | 11.3 | 20.9 | 0.00 | 0.00 | 0.00 | 82 | 1006.7 |
| 20260505193654 | 28 | 229 | 4.8 | 16.1 | 0.00 | 0.00 | 0.00 | 83 | 1006.9 |
| 20260505193151 | 28 | 226 | 14.5 | 17.7 | 0.00 | 0.00 | 0.00 | 84 | 1006.9 |
| 20260505192649 | 27 | 208 | 6.4 | 16.1 | 0.00 | 0.00 | 0.00 | 83 | 1006.9 |
| 20260505192147 | 27 | 223 | 8.0 | 14.5 | 0.00 | 0.00 | 0.00 | 84 | 1006.8 |
| 20260505191645 | 28 | 213 | 6.4 | 14.5 | 0.00 | 0.00 | 0.00 | 82 | 1007.0 |
| 20260505191143 | 27 | 228 | 11.3 | 19.3 | 0.00 | 0.00 | 0.00 | 84 | 1006.9 |
| 20260505190639 | 27 | 226 | 22.5 | 37.0 | 0.00 | 0.00 | 0.00 | 82 | 1007.1 |
| 20260505190138 | 27 | 223 | 8.0 | 38.6 | 0.00 | 0.00 | 0.00 | 83 | 1006.9 |
| 20260505185636 | 27 | 244 | 11.3 | 22.5 | 0.00 | 0.00 | 0.00 | 82 | 1007.1 |
| 20260505185132 | 27 | 210 | 24.1 | 29.0 | 0.00 | 0.00 | 0.00 | 82 | 1007.2 |
| 20260505184628 | 27 | 225 | 11.3 | 19.3 | 0.00 | 0.00 | 0.00 | 85 | 1007.2 |
| 20260505184126 | 26 | 201 | 11.3 | 24.1 | 0.00 | 0.00 | 0.00 | 85 | 1007.4 |
| 20260505183622 | 26 | 211 | 8.0 | 25.7 | 0.00 | 0.00 | 0.00 | 85 | 1007.3 |
| 20260505183120 | 27 | 212 | 11.3 | 24.1 | 0.00 | 0.00 | 0.00 | 85 | 1007.5 |
| 20260505182616 | 26 | 220 | 19.3 | 29.0 | 0.00 | 0.00 | 0.00 | 85 | 1007.3 |
| 20260505182113 | 26 | 190 | 4.8 | 17.7 | 0.00 | 0.00 | 0.00 | 85 | 1007.6 |
| 20260505181609 | 27 | 216 | 14.5 | 22.5 | 0.00 | 0.00 | 0.00 | 84 | 1007.6 |
| 20260505181107 | 26 | 207 | 20.9 | 27.4 | 0.00 | 0.00 | 0.00 | 85 | 1007.6 |
| 20260505180603 | 27 | 228 | 17.7 | 22.5 | 0.00 | 0.00 | 0.00 | 85 | 1007.5 |
| 20260505180101 | 27 | 207 | 6.4 | 19.3 | 0.00 | 0.00 | 0.00 | 85 | 1007.6 |
| 20260505175556 | 26 | 226 | 8.0 | 16.1 | 0.00 | 0.00 | 0.00 | 88 | 1007.7 |
| 20260505175053 | 26 | 228 | 11.3 | 24.1 | 0.00 | 0.00 | 0.00 | 86 | 1007.7 |
| 20260505174550 | 26 | 215 | 16.1 | 20.9 | 0.00 | 0.00 | 0.00 | 86 | 1007.9 |
| 20260505174045 | 26 | 223 | 9.7 | 25.7 | 0.00 | 0.00 | 0.00 | 87 | 1007.5 |
| 20260505173537 | 26 | 204 | 6.4 | 29.0 | 0.00 | 0.00 | 0.00 | 88 | 1008.0 |
| 20260505173033 | 26 | 213 | 11.3 | 17.7 | 0.00 | 0.00 | 0.00 | 88 | 1007.9 |
| 20260505172531 | 25 | 223 | 6.4 | 27.4 | 0.00 | 0.00 | 0.00 | 89 | 1007.9 |
| 20260505172028 | 25 | 233 | 9.7 | 17.7 | 0.00 | 0.00 | 0.00 | 89 | 1007.9 |
| 20260505171523 | 25 | 217 | 11.3 | 32.2 | 0.00 | 0.00 | 0.00 | 88 | 1008.0 |
| 20260505171020 | 26 | 216 | 8.0 | 17.7 | 0.00 | 0.00 | 0.00 | 88 | 1007.9 |
| 20260505170517 | 26 | 227 | 9.7 | 19.3 | 0.00 | 0.00 | 0.00 | 88 | 1008.0 |
| 20260505170013 | 26 | 246 | 17.7 | 27.4 | 0.00 | 0.00 | 0.00 | 88 | 1008.0 |
| 20260505165508 | 25 | 250 | 20.9 | 20.9 | 0.00 | 0.00 | 0.00 | 89 | 1007.9 |
| 20260505165004 | 25 | 213 | 14.5 | 33.8 | 0.00 | 0.00 | 0.00 | 88 | 1008.1 |
| 20260505164500 | 25 | 231 | 14.5 | 19.3 | 0.00 | 0.00 | 0.00 | 89 | 1008.0 |
| 20260505163959 | 25 | 222 | 17.7 | 25.7 | 0.00 | 0.00 | 0.00 | 89 | 1008.1 |
| 20260505163457 | 25 | 227 | 11.3 | 22.5 | 0.00 | 0.00 | 0.00 | 89 | 1008.1 |
| 20260505162956 | 25 | 213 | 4.8 | 24.1 | 0.00 | 0.00 | 0.00 | 90 | 1007.9 |
| 20260505162451 | 25 | 216 | 4.8 | 9.7 | 0.00 | 0.00 | 0.00 | 90 | 1008.2 |
| 20260505161948 | 25 | 206 | 6.4 | 14.5 | 0.00 | 0.00 | 0.00 | 91 | 1008.0 |
| 20260505161445 | 25 | 216 | 6.4 | 16.1 | 0.00 | 0.00 | 0.00 | 91 | 1007.9 |
| 20260505160942 | 25 | 234 | 8.0 | 14.5 | 0.00 | 0.00 | 0.00 | 92 | 1008.1 |
| 20260505160440 | 24 | 180 | 4.8 | 20.9 | 0.00 | 0.00 | 0.00 | 92 | 1008.0 |
| 20260505152910 | 23 | 230 | 8.0 | 24.1 | 0.00 | 0.00 | 0.00 | 94 | 1008.0 |
| 20260505152407 | 23 | 235 | 8.0 | 19.3 | 0.00 | 0.00 | 0.00 | 94 | 1007.9 |
| 20260505151902 | 23 | 211 | 9.7 | 27.4 | 0.00 | 0.00 | 0.00 | 94 | 1007.8 |
| 20260505151358 | 23 | 154 | 3.2 | 14.5 | 0.00 | 0.00 | 0.00 | 94 | 1007.9 |
| 20260505150855 | 23 | 215 | 11.3 | 29.0 | 0.00 | 0.00 | 0.00 | 94 | 1008.0 |
| 20260505150347 | 23 | 215 | 19.3 | 24.1 | 0.00 | 0.00 | 0.00 | 94 | 1007.9 |
| 20260505140317 | 22 | 150 | 6.4 | 17.7 | 0.00 | 0.00 | 0.00 | 96 | 1007.8 |
| 20260505130240 | 22 | 198 | 6.4 | 12.9 | 0.00 | 0.00 | 0.00 | 96 | 1007.3 |
| 20260505124731 | 22 | 199 | 11.3 | 20.9 | 0.00 | 0.00 | 0.00 | 97 | 1007.2 |
| 20260505124228 | 22 | 157 | 11.3 | 14.5 | 0.00 | 0.00 | 0.00 | 96 | 1007.2 |
| 20260505123723 | 21 | 195 | 4.8 | 22.5 | 0.00 | 0.00 | 0.00 | 96 | 1007.2 |
| 20260505123220 | 21 | 215 | 8.0 | 12.9 | 0.00 | 0.00 | 0.00 | 96 | 1007.3 |
| 20260505122716 | 21 | 203 | 0.0 | 11.3 | 0.00 | 0.00 | 0.00 | 96 | 1007.3 |
| 20260505122214 | 21 | 208 | 12.9 | 16.1 | 0.00 | 0.00 | 0.00 | 96 | 1007.1 |
| 20260505121705 | 21 | 195 | 3.2 | 17.7 | 0.00 | 0.00 | 0.00 | 96 | 1007.0 |
| 20260505121201 | 21 | 201 | 4.8 | 16.1 | 0.00 | 0.00 | 0.00 | 96 | 1007.2 |
| 20260505120658 | 21 | 213 | 8.0 | 11.3 | 0.00 | 0.00 | 0.00 | 96 | 1007.0 |
| 20260505120153 | 21 | 214 | 4.8 | 16.1 | 0.00 | 0.00 | 0.00 | 96 | 1006.8 |
| 20260505115647 | 21 | 214 | 0.0 | 11.3 | 0.00 | 0.00 | 0.00 | 96 | 1006.8 |
| 20260505115146 | 21 | 215 | 11.3 | 11.3 | 0.00 | 0.00 | 0.00 | 96 | 1006.9 |
| 20260505114643 | 21 | 210 | 3.2 | 14.5 | 0.00 | 0.00 | 0.00 | 96 | 1007.0 |
| 20260505114139 | 21 | 201 | 8.0 | 22.5 | 0.00 | 0.00 | 0.00 | 95 | 1007.0 |
| 20260505113635 | 21 | 151 | 9.7 | 17.7 | 0.00 | 0.00 | 0.00 | 95 | 1007.1 |
| 20260505113132 | 21 | 223 | 8.0 | 12.9 | 0.00 | 0.00 | 0.00 | 96 | 1007.2 |
| 20260505112628 | 21 | 205 | 6.4 | 17.7 | 0.00 | 0.00 | 0.00 | 95 | 1006.9 |
| 20260505112126 | 21 | 177 | 3.2 | 17.7 | 0.00 | 0.00 | 0.00 | 95 | 1006.8 |
| 20260505111626 | 21 | 226 | 6.4 | 19.3 | 0.00 | 0.00 | 0.00 | 95 | 1006.7 |
| 20260505111122 | 21 | 226 | 19.3 | 19.3 | 0.00 | 0.00 | 0.00 | 95 | 1007.0 |
| 20260505110618 | 21 | 208 | 8.0 | 20.9 | 0.00 | 0.00 | 0.00 | 95 | 1006.9 |
| 20260505110115 | 21 | 208 | 8.0 | 17.7 | 0.00 | 0.00 | 0.00 | 95 | 1006.8 |
| 20260505102051 | 21 | 222 | 9.7 | 20.9 | 0.00 | 0.00 | 0.00 | 95 | 1006.8 |
| 20260505101550 | 21 | 214 | 9.7 | 17.7 | 0.00 | 0.00 | 0.00 | 95 | 1007.1 |
| 20260505101046 | 21 | 225 | 6.4 | 19.3 | 0.00 | 0.00 | 0.00 | 95 | 1007.1 |
| 20260505100542 | 21 | 216 | 11.3 | 11.3 | 0.00 | 0.00 | 0.00 | 95 | 1006.9 |
| 20260505100039 | 21 | 241 | 6.4 | 12.9 | 0.00 | 0.00 | 0.00 | 95 | 1006.7 |
| 20260505095535 | 21 | 204 | 11.3 | 17.7 | 0.00 | 0.00 | 0.00 | 95 | 1007.1 |
| 20260505095032 | 21 | 200 | 9.7 | 17.7 | 0.00 | 0.00 | 0.00 | 95 | 1007.2 |
| 20260505094528 | 21 | 257 | 1.6 | 19.3 | 0.00 | 0.00 | 0.00 | 95 | 1007.2 |
| 20260505094025 | 21 | 209 | 4.8 | 19.3 | 0.00 | 0.00 | 0.00 | 95 | 1006.9 |
| 20260505093521 | 21 | 241 | 6.4 | 20.9 | 0.00 | 0.00 | 0.00 | 95 | 1006.8 |
| 20260505093019 | 21 | 227 | 8.0 | 22.5 | 0.00 | 0.00 | 0.00 | 95 | 1007.1 |
| 20260505092516 | 21 | 221 | 0.0 | 25.7 | 0.00 | 0.00 | 0.00 | 95 | 1007.1 |
| 20260505092014 | 21 | 220 | 22.5 | 25.7 | 0.00 | 0.00 | 0.00 | 94 | 1007.0 |
| 20260505091511 | 21 | 154 | 6.4 | 12.9 | 0.00 | 0.00 | 0.00 | 95 | 1007.3 |
| 20260505091009 | 21 | 168 | 11.3 | 22.5 | 0.00 | 0.00 | 0.00 | 95 | 1007.2 |
| 20260505090507 | 21 | 176 | 6.4 | 22.5 | 0.00 | 0.00 | 0.00 | 94 | 1007.3 |
| 20260505090004 | 21 | 189 | 8.0 | 12.9 | 0.00 | 0.00 | 0.00 | 95 | 1007.3 |
| 20260505085502 | 21 | 223 | 6.4 | 14.5 | 0.00 | 0.00 | 0.00 | 95 | 1007.3 |
| 20260505085000 | 21 | 225 | 11.3 | 20.9 | 0.00 | 0.00 | 0.00 | 95 | 1007.3 |
| 20260505084458 | 21 | 221 | 11.3 | 14.5 | 0.00 | 0.00 | 0.00 | 95 | 1007.4 |
| 20260505083955 | 21 | 187 | 1.6 | 20.9 | 0.00 | 0.00 | 0.00 | 95 | 1007.5 |
| 20260505083452 | 21 | 154 | 1.6 | 17.7 | 0.00 | 0.00 | 0.00 | 95 | 1007.3 |
| 20260505082949 | 21 | 217 | 20.9 | 35.4 | 0.00 | 0.00 | 0.00 | 95 | 1007.5 |
| 20260505082444 | 21 | 152 | 8.0 | 19.3 | 0.00 | 0.00 | 0.00 | 95 | 1007.7 |
| 20260505081942 | 21 | 214 | 8.0 | 24.1 | 0.00 | 0.00 | 0.00 | 94 | 1008.0 |
| 20260505081439 | 21 | 224 | 14.5 | 24.1 | 0.00 | 0.00 | 0.00 | 94 | 1007.9 |
| 20260505080935 | 21 | 214 | 11.3 | 17.7 | 0.00 | 0.00 | 0.00 | 94 | 1007.8 |
| 20260505080431 | 21 | 208 | 8.0 | 19.3 | 0.00 | 0.00 | 0.00 | 95 | 1007.9 |
| 20260505075926 | 21 | 206 | 6.4 | 12.9 | 0.00 | 0.00 | 0.00 | 95 | 1007.8 |
| 20260505075424 | 21 | 237 | 3.2 | 14.5 | 0.00 | 0.00 | 0.00 | 95 | 1007.8 |
| 20260505074921 | 21 | 169 | 9.7 | 24.1 | 0.00 | 0.00 | 0.00 | 95 | 1007.8 |
| 20260505074419 | 21 | 237 | 3.2 | 9.7 | 0.00 | 0.00 | 0.00 | 95 | 1008.2 |
| 20260505073915 | 21 | 220 | 4.8 | 11.3 | 0.00 | 0.00 | 0.00 | 95 | 1008.1 |
| 20260505073413 | 21 | 206 | 0.0 | 9.7 | 0.00 | 0.00 | 0.00 | 95 | 1007.9 |
| 20260505072910 | 21 | 148 | 8.0 | 8.0 | 0.00 | 0.00 | 0.00 | 95 | 1007.9 |
| 20260505072406 | 21 | 235 | 6.4 | 17.7 | 0.00 | 0.00 | 0.00 | 95 | 1008.1 |
| 20260505071902 | 21 | 242 | 0.0 | 11.3 | 0.00 | 0.00 | 0.00 | 95 | 1008.4 |
| 20260505071359 | 21 | 218 | 11.3 | 14.5 | 0.00 | 0.00 | 0.00 | 94 | 1008.5 |
| 20260505070857 | 21 | 161 | 3.2 | 12.9 | 0.00 | 0.00 | 0.00 | 95 | 1008.4 |
| 20260505070353 | 21 | 144 | 3.2 | 12.9 | 0.00 | 0.00 | 0.00 | 95 | 1008.5 |
| 20260505065848 | 21 | 147 | 8.0 | 12.9 | 0.00 | 0.00 | 0.00 | 94 | 1008.5 |
| 20260505065346 | 21 | 216 | 9.7 | 20.9 | 0.00 | 0.00 | 0.00 | 94 | 1008.7 |
| 20260505064842 | 21 | 169 | 4.8 | 9.7 | 0.00 | 0.00 | 0.00 | 94 | 1008.9 |
| 20260505064339 | 21 | 145 | 4.8 | 9.7 | 0.00 | 0.00 | 0.00 | 94 | 1008.7 |
| 20260505063838 | 21 | 180 | 1.6 | 11.3 | 0.00 | 0.00 | 0.00 | 93 | 1008.7 |
| 20260505063333 | 21 | 186 | 8.0 | 19.3 | 0.00 | 0.00 | 0.00 | 93 | 1008.9 |
| 20260505062830 | 21 | 210 | 4.8 | 20.9 | 0.00 | 0.00 | 0.00 | 93 | 1008.7 |
| 20260505062328 | 21 | 211 | 8.0 | 14.5 | 0.00 | 0.00 | 0.00 | 93 | 1008.6 |
| 20260505061824 | 21 | 150 | 4.8 | 14.5 | 0.00 | 0.00 | 0.00 | 93 | 1008.7 |
| 20260505061323 | 21 | 225 | 8.0 | 11.3 | 0.00 | 0.00 | 0.00 | 93 | 1008.7 |
| 20260505060820 | 21 | 219 | 11.3 | 22.5 | 0.00 | 0.00 | 0.00 | 93 | 1008.5 |
| 20260505060316 | 21 | 180 | 8.0 | 17.7 | 0.00 | 0.00 | 0.00 | 93 | 1008.5 |
| 20260505055812 | 21 | 184 | 11.3 | 16.1 | 0.00 | 0.00 | 0.00 | 93 | 1008.6 |
| 20260505055308 | 21 | 235 | 4.8 | 19.3 | 0.00 | 0.00 | 0.00 | 93 | 1008.3 |
| 20260505054806 | 21 | 225 | 14.5 | 17.7 | 0.00 | 0.00 | 0.00 | 92 | 1008.6 |
| 20260505054303 | 21 | 168 | 6.4 | 22.5 | 0.00 | 0.00 | 0.00 | 92 | 1008.4 |
| 20260505053801 | 21 | 173 | 4.8 | 14.5 | 0.00 | 0.00 | 0.00 | 93 | 1008.4 |
| 20260505053258 | 21 | 168 | 8.0 | 9.7 | 0.00 | 0.00 | 0.00 | 92 | 1008.7 |
| 20260505052755 | 21 | 206 | 4.8 | 16.1 | 0.00 | 0.00 | 0.00 | 92 | 1008.7 |
| 20260505052252 | 21 | 216 | 3.2 | 14.5 | 0.00 | 0.00 | 0.00 | 92 | 1008.9 |
| 20260505051749 | 21 | 185 | 4.8 | 19.3 | 0.00 | 0.00 | 0.00 | 91 | 1008.8 |
| 20260505051247 | 21 | 212 | 8.0 | 16.1 | 0.00 | 0.00 | 0.00 | 91 | 1008.9 |
| 20260505050744 | 21 | 185 | 4.8 | 20.9 | 0.00 | 0.00 | 0.00 | 91 | 1008.5 |
| 20260505050243 | 21 | 153 | 8.0 | 14.5 | 0.00 | 0.00 | 0.00 | 91 | 1008.4 |
| 20260505041712 | 21 | 208 | 9.7 | 29.0 | 0.00 | 0.00 | 0.00 | 90 | 1009.2 |
| 20260505041209 | 21 | 204 | 8.0 | 11.3 | 0.00 | 0.00 | 0.00 | 90 | 1009.0 |
| 20260505040707 | 21 | 153 | 6.4 | 12.9 | 0.00 | 0.00 | 0.00 | 89 | 1009.1 |
| 20260505040204 | 21 | 169 | 4.8 | 24.1 | 0.00 | 0.00 | 0.00 | 89 | 1009.0 |
| 20260505035700 | 21 | 209 | 11.3 | 17.7 | 0.00 | 0.00 | 0.00 | 89 | 1009.0 |
| 20260505035156 | 22 | 197 | 4.8 | 20.9 | 0.00 | 0.00 | 0.00 | 89 | 1009.2 |
| 20260505034653 | 22 | 180 | 6.4 | 12.9 | 0.00 | 0.00 | 0.00 | 88 | 1009.1 |
| 20260505034151 | 22 | 194 | 8.0 | 19.3 | 0.00 | 0.00 | 0.00 | 88 | 1009.0 |
| 20260505033646 | 22 | 183 | 8.0 | 9.7 | 0.00 | 0.00 | 0.00 | 88 | 1008.8 |
| 20260505033145 | 22 | 201 | 4.8 | 16.1 | 0.00 | 0.00 | 0.00 | 88 | 1008.7 |
| 20260505032643 | 22 | 159 | 6.4 | 20.9 | 0.00 | 0.00 | 0.00 | 88 | 1008.9 |
| 20260505032138 | 22 | 157 | 11.3 | 17.7 | 0.00 | 0.00 | 0.00 | 87 | 1009.1 |
| 20260505031636 | 22 | 164 | 9.7 | 20.9 | 0.00 | 0.00 | 0.00 | 87 | 1008.9 |
| 20260505031126 | 22 | 158 | 9.7 | 19.3 | 0.00 | 0.00 | 0.00 | 87 | 1009.1 |
| 20260505030624 | 22 | 137 | 11.3 | 14.5 | 0.00 | 0.00 | 0.00 | 87 | 1008.7 |
| 20260505030120 | 22 | 158 | 4.8 | 16.1 | 0.00 | 0.00 | 0.00 | 87 | 1008.8 |
| 20260505025615 | 22 | 155 | 6.4 | 20.9 | 0.00 | 0.00 | 0.00 | 87 | 1008.9 |
| 20260505025114 | 22 | 140 | 8.0 | 22.5 | 0.00 | 0.00 | 0.00 | 86 | 1008.9 |
| 20260505024611 | 22 | 172 | 4.8 | 12.9 | 0.00 | 0.00 | 0.00 | 86 | 1008.7 |
| 20260505024109 | 22 | 155 | 9.7 | 17.7 | 0.00 | 0.00 | 0.00 | 86 | 1008.7 |
| 20260505023606 | 22 | 147 | 8.0 | 11.3 | 0.00 | 0.00 | 0.00 | 86 | 1008.9 |
| 20260505023103 | 22 | 168 | 3.2 | 17.7 | 0.00 | 0.00 | 0.00 | 86 | 1008.9 |
| 20260505022601 | 22 | 161 | 8.0 | 11.3 | 0.00 | 0.00 | 0.00 | 86 | 1008.7 |
| 20260505022057 | 22 | 165 | 3.2 | 16.1 | 0.00 | 0.00 | 0.00 | 86 | 1008.8 |
| 20260505021554 | 22 | 189 | 6.4 | 9.7 | 0.00 | 0.00 | 0.00 | 86 | 1008.6 |
| 20260505021051 | 22 | 157 | 8.0 | 9.7 | 0.00 | 0.00 | 0.00 | 86 | 1008.7 |
| 20260505020550 | 22 | 203 | 8.0 | 14.5 | 0.00 | 0.00 | 0.00 | 86 | 1008.6 |
| 20260505020048 | 22 | 147 | 3.2 | 14.5 | 0.00 | 0.00 | 0.00 | 86 | 1008.7 |
| 20260505015545 | 22 | 131 | 4.8 | 12.9 | 0.00 | 0.00 | 0.00 | 86 | 1008.7 |
| 20260505015041 | 22 | 151 | 8.0 | 9.7 | 0.00 | 0.00 | 0.00 | 86 | 1008.6 |
| 20260505014538 | 22 | 159 | 4.8 | 8.0 | 0.00 | 0.00 | 0.00 | 86 | 1008.5 |
| 20260505014036 | 23 | 162 | 4.8 | 8.0 | 0.00 | 0.00 | 0.00 | 86 | 1008.6 |
| 20260505013532 | 23 | 180 | 3.2 | 8.0 | 0.00 | 0.00 | 0.00 | 85 | 1008.4 |
| 20260505013030 | 23 | 140 | 4.8 | 6.4 | 0.00 | 0.00 | 0.00 | 86 | 1008.5 |
| 20260505012528 | 23 | 185 | 1.6 | 6.4 | 0.00 | 0.00 | 0.00 | 85 | 1008.2 |
| 20260505012025 | 23 | 187 | 3.2 | 8.0 | 0.00 | 0.00 | 0.00 | 84 | 1008.3 |
| 20260505011520 | 23 | 151 | 8.0 | 9.7 | 0.00 | 0.00 | 0.00 | 83 | 1008.3 |
| 20260505011018 | 23 | 203 | 1.6 | 11.3 | 0.00 | 0.00 | 0.00 | 83 | 1008.2 |
| 20260505010513 | 23 | 245 | 0.0 | 4.8 | 0.00 | 0.00 | 0.00 | 83 | 1008.2 |
| 20260505010010 | 23 | 140 | 6.4 | 11.3 | 0.00 | 0.00 | 0.00 | 82 | 1007.9 |
| 20260505005506 | 24 | 195 | 0.0 | 11.3 | 0.00 | 0.00 | 0.00 | 82 | 1008.2 |
| 20260505005004 | 24 | 166 | 4.8 | 6.4 | 0.00 | 0.00 | 0.00 | 81 | 1008.0 |
| 20260505004501 | 24 | 208 | 17.7 | 17.7 | 0.00 | 0.00 | 0.00 | 80 | 1008.0 |
| 20260505003958 | 25 | 188 | 0.0 | 14.5 | 0.00 | 0.00 | 0.00 | 80 | 1008.1 |
| 20260505003455 | 25 | 240 | 4.8 | 12.9 | 0.00 | 0.00 | 0.00 | 80 | 1008.2 |
| 20260505002950 | 25 | 147 | 19.3 | 20.9 | 0.00 | 0.00 | 0.00 | 79 | 1008.2 |
| 20260505002447 | 25 | 202 | 4.8 | 12.9 | 0.00 | 0.00 | 0.00 | 79 | 1008.1 |
| 20260505001945 | 25 | 139 | 3.2 | 11.3 | 0.00 | 0.00 | 0.00 | 79 | 1008.2 |
| 20260505001443 | 25 | 188 | 0.0 | 17.7 | 0.00 | 0.00 | 0.00 | 79 | 1008.2 |
| 20260505000939 | 25 | 209 | 0.0 | 8.0 | 0.00 | 0.00 | 0.00 | 78 | 1008.2 |
| 20260505000438 | 25 | 212 | 6.4 | 14.5 | 0.00 | 0.00 | 0.00 | 78 | 1008.3 |
| 20260504235934 | 25 | 231 | 9.7 | 11.3 | 0.00 | 0.00 | 0.00 | 78 | 1008.4 |
| 20260504235431 | 25 | 226 | 8.0 | 14.5 | 0.00 | 0.00 | 0.00 | 77 | 1008.3 |
| 20260504234927 | 26 | 163 | 9.7 | 14.5 | 0.00 | 0.00 | 0.00 | 76 | 1008.5 |
| 20260504234425 | 26 | 180 | 8.0 | 19.3 | 0.00 | 0.00 | 0.00 | 76 | 1008.7 |
| 20260504233921 | 26 | 196 | 6.4 | 12.9 | 0.00 | 0.00 | 0.00 | 76 | 1008.6 |
| 20260504233417 | 26 | 228 | 9.7 | 17.7 | 0.00 | 0.00 | 0.00 | 76 | 1008.4 |
| 20260504232914 | 26 | 244 | 12.9 | 16.1 | 0.00 | 0.00 | 0.00 | 75 | 1008.6 |
| 20260504232411 | 26 | 227 | 11.3 | 17.7 | 0.00 | 0.00 | 0.00 | 74 | 1008.6 |
| 20260504231908 | 26 | 156 | 14.5 | 17.7 | 0.00 | 0.00 | 0.00 | 74 | 1008.7 |
| 20260504231404 | 26 | 191 | 3.2 | 12.9 | 0.00 | 0.00 | 0.00 | 73 | 1008.8 |
| 20260504230901 | 26 | 209 | 4.8 | 11.3 | 0.00 | 0.00 | 0.00 | 73 | 1008.9 |
| 20260504230358 | 26 | 148 | 8.0 | 17.7 | 0.00 | 0.00 | 0.00 | 73 | 1008.8 |
| 20260504225857 | 26 | 0 | 0.0 | 11.3 | 0.00 | 0.00 | 0.00 | 73 | 1008.6 |
| 20260504225353 | 27 | 176 | 3.2 | 9.7 | 0.00 | 0.00 | 0.00 | 72 | 1008.7 |
| 20260504224851 | 27 | 178 | 11.3 | 17.7 | 0.00 | 0.00 | 0.00 | 69 | 1008.6 |
| 20260504224347 | 27 | 172 | 8.0 | 22.5 | 0.00 | 0.00 | 0.00 | 68 | 1008.8 |
| 20260504223844 | 27 | 198 | 4.8 | 16.1 | 0.00 | 0.00 | 0.00 | 68 | 1008.9 |
| 20260504223339 | 27 | 197 | 6.4 | 12.9 | 0.00 | 0.00 | 0.00 | 70 | 1009.0 |
| 20260504222836 | 27 | 218 | 6.4 | 16.1 | 0.00 | 0.00 | 0.00 | 70 | 1009.1 |
| 20260504222333 | 27 | 174 | 8.0 | 12.9 | 0.00 | 0.00 | 0.00 | 67 | 1009.0 |
| 20260504221832 | 27 | 229 | 6.4 | 9.7 | 0.00 | 0.00 | 0.00 | 70 | 1009.1 |
| 20260504221328 | 27 | 201 | 3.2 | 14.5 | 0.00 | 0.00 | 0.00 | 69 | 1008.9 |
| 20260504220825 | 27 | 165 | 6.4 | 24.1 | 0.00 | 0.00 | 0.00 | 69 | 1009.3 |
| 20260504220322 | 28 | 213 | 6.4 | 12.9 | 0.00 | 0.00 | 0.00 | 69 | 1008.9 |
| 20260504215819 | 27 | 233 | 4.8 | 8.0 | 0.00 | 0.00 | 0.00 | 71 | 1009.0 |
| 20260504215315 | 27 | 116 | 8.0 | 12.9 | 0.00 | 0.00 | 0.00 | 69 | 1009.3 |
| 20260504214811 | 27 | 216 | 22.5 | 27.4 | 0.00 | 0.00 | 0.00 | 69 | 1009.3 |
| 20260504214309 | 28 | 236 | 0.0 | 11.3 | 0.00 | 0.00 | 0.00 | 69 | 1009.1 |
| 20260504213805 | 27 | 225 | 9.7 | 14.5 | 0.00 | 0.00 | 0.00 | 70 | 1009.5 |
| 20260504213301 | 27 | 223 | 6.4 | 14.5 | 0.00 | 0.00 | 0.00 | 69 | 1009.5 |
| 20260504212759 | 27 | 208 | 4.8 | 12.9 | 0.00 | 0.00 | 0.00 | 69 | 1009.4 |
| 20260504212255 | 27 | 186 | 6.4 | 16.1 | 0.00 | 0.00 | 0.00 | 71 | 1009.7 |